Regional Weather Roundup
Issued by NWS

Home | Current Version | Previous Version | Text Only | Print | Product List | Glossary Off
Versions: 1 2 3 4 5 6 7 8 9 10 11 12 13 14 15 16 17 18 19 20 21 22 23 24 25 26 27 28 29 30 31 32 33 34 35 36 37 38 39 40 41 42 43 44 45 46 47 48 49

000
ASUS45 KCYS 282110
RWRWY

WYOMING REGIONAL WEATHER ROUNDUP
NATIONAL WEATHER SERVICE CHEYENNE WY
200 PM MST WED JAN 28 2015

NOTE:  "FAIR" INDICATES FEW OR NO CLOUDS BELOW 12,000 FEET
WITH NO SIGNIFICANT WEATHER AND/OR OBSTRUCTIONS TO VISIBILITY.

WYZ001-282200-
YELLOWSTONE NATIONAL PARK

CITY           SKY/WX    TMP DP  RH WIND       PRES   REMARKS
LK YELLOWSTONE   N/A     35  29  78 CALM      30.25S
W YELLOWSTONE  NOT AVBL

$$
WYZ002>013-054>058-071-098>099-282200-
NORTHERN WYOMING

CITY           SKY/WX    TMP DP  RH WIND       PRES   REMARKS
JACKSON        PTSUNNY   37  32  81 CALM      30.23S
CODY           CLOUDY    45  36  70 NE12      30.17R
GREYBULL       FOG       38  38 100 SW7       30.17R VSB 1   WCI  33
WORLAND        CLOUDY    36  34  92 SE8       30.15S WCI  30
SHERIDAN       PTSUNNY   50  27  40 NW25      30.13R
BUFFALO        CLOUDY    46  24  42 NW24G39   30.12R
GILLETTE       FAIR      49  27  42 NW26G33   30.07R
HULETT           N/A    N/A N/A N/A MISG        N/A
NEWCASTLE      FAIR      46  28  49 NW16      30.03R

$$
WYZ014>020-022>026-101>103-282200-
CENTRAL WYOMING

CITY           SKY/WX    TMP DP  RH WIND       PRES   REMARKS
BIG PINEY      FAIR      42  29  59 NW10      30.22F
PINEDALE       FAIR      37  30  75 W16       30.21S WCI  28
DUBOIS         CLOUDY    41  27  56 NW15      30.17S
LANDER         FAIR      45  33  63 SE5       30.17R
RIVERTON       CLOUDY    43  31  62 CALM      30.18R
CASPER         CLOUDY    40  37  89 SE5       30.16R
DOUGLAS        PTSUNNY   43  40  89 W20       30.12S

$$
WYZ021-027>030-104>119-282200-
SOUTHERN WYOMING

CITY           SKY/WX    TMP DP  RH WIND       PRES   REMARKS
EVANSTON       CLOUDY    38  31  76 W12       30.28S WCI  30
KEMMERER       CLOUDY    34  32  93 W18       30.26S WCI  23
FORT BRIDGER   CLOUDY    41  33  74 W18       30.30R
ROCK SPRINGS   FAIR      42  30  62 W25G32    30.22S
DIXON          CLOUDY    42  32  69 SW9       30.26S
RAWLINS        CLOUDY    42  30  62 W24       30.19R
SARATOGA       FAIR      41  30  65 W22G29    30.20S
LARAMIE        FAIR      44  25  47 W30G37    30.13R
CHEYENNE       CLOUDY    49  27  42 NW25G41   30.07R
TORRINGTON     LGT RAIN  45  37  73 W18       30.07R
PINE BLUFFS    MOCLDY    48  34  57 N28G37    30.08R

$$



USA.gov is the U.S. government's official web portal to all federal, state and local government web resources and services.